User: anonymous   Login
Location: Unspecified
(0.0000°N, 0.0000°E)
Time: 09:54:08
(UTC+00:00)
Language:

RS-8 - Orbit

View from above orbital plane
View from above orbital plane
View from above satellite
View from above satellite

Ground track
Ground track

The orbit data is extracted from the following two-line orbital elements,

1 13002U 81120F   22335.86401538  .00000051  00000-0  43202-3 0  9998
2 13002  82.9574 294.2974 0050692 226.6730 159.6017 12.13810835814552
Epoch (UTC): 01 December 2022 20:44:10
Eccentricity: 0.0050692
inclination: 82.9574°
perigee height: 1579 km
apogee height: 1660 km
right ascension of ascending node: 294.2974°
argument of perigee: 226.6730°
revolutions per day: 12.13810835
mean anomaly at epoch: 159.6017°
orbit number at epoch: 81455

The dashed part of the orbit path shows where the satellite is in the earth's shadow,  

DLR